This demonstration page uses our WeatherBlox Daily Observations layout. Learn more.

Left ArrowRight Arrow

Hourly Observations for November 14, 2016

Temp ( °F °C ) Dew Point ( °F °C ) Humidity (%) Winds ( mph kmh ) Pressure ( in mb ) Visibility ( mi km ) Precip ( " mm )
12:53 am 00:53 Clear 41 5 38 3.3 89 89 Calm 30.15 1021 8 13 0.00 0.00
1:53 am 01:53 Clear 41 5 37 2.8 86 86 Calm 30.16 1021 7 11 0.00 0.00
2:53 am 02:53 Clear 39 3.9 36 2.2 89 89 ENE 3 6 30.13 1020 10 16 0.00 0.00
3:53 am 03:53 Clear 38 3.3 35 1.7 89 89 Calm 30.11 1020 7 11 0.00 0.00
4:53 am 04:53 Clear with Mist and Fog 37 2.8 34 1.1 89 89 Calm 30.12 1020 3 4 0.00 0.00
5:00 am 05:00 Clear with Mist and Fog 37 3 36 2 93 93 Calm 30.18 1022 4 6 0.00 0.00
5:53 am 05:53 Mostly Clear 39 3.9 36 2.2 89 89 Calm 30.12 1020 10 16 0.00 0.00
6:53 am 06:53 Mostly Clear with Mist and Fog 36 2.2 33 0.6 89 89 Calm 30.13 1020 6 10 0.00 0.00
7:30 am 07:30 Cloudy with Mist and Fog 37 2.8 33 0.6 86 86 Calm 30.18 1022 6 10 0.00 0.00
7:53 am 07:53 Cloudy with Mist and Fog 35 1.7 33 0.6 93 93 Calm 30.14 1021 6 10 0.00 0.00
8:53 am 08:53 Cloudy with Mist and Fog 43 6.1 39 3.9 86 86 Calm 30.13 1020 6 10 0.00 0.00
9:36 am 09:36 Cloudy 46 8 41 5 82 82 Calm 30.15 1021 7 11 0.00 0.00
9:53 am 09:53 Cloudy 49 9.4 42 5.6 77 77 Calm 30.13 1020 8 13 0.00 0.00
10:53 am 10:53 Sunny 58 14.4 40 4.4 51 51 WNW 7 11 30.11 1020 9 14 0.00 0.00
11:53 am 11:53 Hazy 62 16.7 40 4.4 44 44 WNW 8 13 30.08 1019 4 6 0.00 0.00
12:53 pm 12:53 Cloudy with Haze 65 18.3 37 2.8 36 36 NW 10 17 30.04 1017 3 5 0.00 0.00
1:53 pm 13:53 Cloudy with Haze 66 18.9 36 2.2 33 33 NW 6 9 30.02 1017 3 5 0.00 0.00
2:53 pm 14:53 Mostly Cloudy with Haze 66 18.9 36 2.2 33 33 W 8 13 30.00 1016 4 6 0.00 0.00
3:53 pm 15:53 Hazy 65 18.3 36 2.2 34 34 W 9 15 30.00 1016 4 6 0.00 0.00
4:53 pm 16:53 Hazy 64 17.8 35 1.7 34 34 WNW 3 6 29.99 1016 4 6 0.00 0.00
5:53 pm 17:53 Hazy 55 12.8 37 2.8 51 51 Calm 30.00 1016 5 8 0.00 0.00
6:53 pm 18:53 Hazy 52 11.1 39 3.9 61 61 Calm 30.01 1016 5 8 0.00 0.00
7:53 pm 19:53 Hazy 48 8.9 39 3.9 71 71 Calm 30.03 1017 5 8 0.00 0.00
8:53 pm 20:53 Hazy 48 8.9 39 3.9 71 71 Calm 30.02 1017 4 6 0.00 0.00
9:53 pm 21:53 Hazy 43 6.1 38 3.3 82 82 Calm 30.02 1017 4 6 0.00 0.00
10:53 pm 22:53 Clear with Mist and Fog 42 5.6 38 3.3 85 85 Calm 30.02 1017 4 6 0.00 0.00
11:53 pm 23:53 Clear with Mist and Fog 41 5 37 2.8 86 86 Calm 30.01 1016 4 6 0.00 0.00

Powered by AerisWeather